• In United Kingdom
  • List of Countries
  • For 7 days
  • Water Temperature
  • Satellite Maps
  • Weather Map
  • Weather Widgets
  • user-avatar
    Login

    Hourly Weather Andora

    Today, 23 May, Wednesday

    Time Temperature Precipitation Wind Pressure Humidity
    00:00 +7°C° 0 mm 1 mps 624 mmHg 90%
    01:00 +7°C° 0.1 mm 1 mps 624 mmHg 91%
    02:00 +7°C° 0.1 mm 1 mps 624 mmHg 91%
    03:00 +7°C° 0.1 mm 1 mps 624 mmHg 91%
    04:00 +8°C° 0 mm 1 mps 625 mmHg 89%
    05:00 +8°C° 0 mm 1 mps 625 mmHg 87%
    06:00 +9°C° 0 mm 1 mps 625 mmHg 85%
    07:00 +10°C° 0.1 mm 1 mps 626 mmHg 79%
    08:00 +12°C° 0.1 mm 1 mps 627 mmHg 73%
    09:00 +14°C° 0.1 mm 1 mps 628 mmHg 66%
    10:00 +14°C° 0.5 mm 1 mps 628 mmHg 65%
    11:00 +15°C° 0.5 mm 2 mps 628 mmHg 63%
    12:00 +15°C° 0.5 mm 2 mps 628 mmHg 61%
    13:00 +15°C° 0.6 mm 2 mps 628 mmHg 63%
    14:00 +15°C° 0.6 mm 2 mps 627 mmHg 66%
    15:00 +15°C° 0.6 mm 2 mps 627 mmHg 68%
    16:00 +14°C° 0.9 mm 2 mps 627 mmHg 72%
    17:00 +13°C° 0.9 mm 2 mps 627 mmHg 77%
    18:00 +13°C° 0.9 mm 1 mps 626 mmHg 82%
    19:00 +12°C° 0.2 mm 1 mps 626 mmHg 85%
    20:00 +10°C° 0.2 mm 1 mps 626 mmHg 88%
    21:00 +9°C° 0.2 mm 1 mps 626 mmHg 91%
    22:00 +9°C° 0.1 mm 1 mps 626 mmHg 91%
    23:00 +9°C° 0.1 mm 1 mps 625 mmHg 91%

    Tomorrow, 24 May, Thursday

    Time Temperature Precipitation Wind Pressure Humidity
    00:00 +8°C° 0.1 mm 1 mps 625 mmHg 91%
    01:00 +8°C° 0 mm 1 mps 625 mmHg 90%
    02:00 +8°C° 0 mm 1 mps 625 mmHg 90%
    03:00 +7°C° 0 mm 1 mps 624 mmHg 89%
    04:00 +8°C° 0 mm 1 mps 625 mmHg 87%
    05:00 +9°C° 0 mm 1 mps 625 mmHg 84%
    06:00 +10°C° 0 mm 1 mps 626 mmHg 82%
    07:00 +12°C° 0 mm 1 mps 627 mmHg 73%
    08:00 +14°C° 0 mm 2 mps 627 mmHg 65%
    09:00 +16°C° 0 mm 2 mps 628 mmHg 57%
    10:00 +17°C° 0 mm 2 mps 628 mmHg 54%
    11:00 +18°C° 0 mm 3 mps 629 mmHg 51%
    12:00 +19°C° 0 mm 3 mps 629 mmHg 48%
    13:00 +19°C° 0.2 mm 3 mps 629 mmHg 48%
    14:00 +19°C° 0.2 mm 3 mps 628 mmHg 48%
    15:00 +19°C° 0.2 mm 3 mps 628 mmHg 48%
    16:00 +18°C° 0.1 mm 3 mps 628 mmHg 54%
    17:00 +17°C° 0.1 mm 2 mps 627 mmHg 59%
    18:00 +16°C° 0.1 mm 2 mps 627 mmHg 65%
    19:00 +14°C° 0 mm 2 mps 626 mmHg 69%
    20:00 +12°C° 0 mm 2 mps 626 mmHg 73%
    21:00 +10°C° 0 mm 1 mps 625 mmHg 77%
    22:00 +10°C° 0 mm 1 mps 625 mmHg 74%
    23:00 +9°C° 0 mm 1 mps 625 mmHg 70%

    Day after tomorrow, 25 May, Friday

    Time Temperature Precipitation Wind Pressure Humidity
    00:00 +8°C° 0 mm 2 mps 625 mmHg 66%
    01:00 +8°C° 0 mm 2 mps 625 mmHg 64%
    02:00 +8°C° 0 mm 2 mps 625 mmHg 62%
    03:00 +8°C° 0 mm 2 mps 624 mmHg 59%
    04:00 +9°C° 0 mm 2 mps 625 mmHg 60%
    05:00 +10°C° 0 mm 2 mps 625 mmHg 61%
    06:00 +12°C° 0 mm 2 mps 625 mmHg 61%
    07:00 +14°C° 0.1 mm 2 mps 626 mmHg 56%
    08:00 +16°C° 0.1 mm 3 mps 627 mmHg 52%
    09:00 +17°C° 0.1 mm 3 mps 627 mmHg 47%
    10:00 +19°C° 0.1 mm 4 mps 628 mmHg 44%
    11:00 +20°C° 0.1 mm 4 mps 628 mmHg 41%
    12:00 +21°C° 0.1 mm 5 mps 628 mmHg 38%
    13:00 +21°C° 0 mm 5 mps 628 mmHg 39%
    14:00 +20°C° 0 mm 5 mps 627 mmHg 39%
    15:00 +20°C° 0 mm 5 mps 627 mmHg 39%
    16:00 +19°C° 0 mm 4 mps 626 mmHg 45%
    17:00 +18°C° 0 mm 4 mps 626 mmHg 50%
    18:00 +16°C° 0 mm 3 mps 625 mmHg 55%
    19:00 +13°C° 0 mm 3 mps 625 mmHg 58%
    20:00 +12°C° 0 mm 2 mps 624 mmHg 61%
    21:00 +9°C° 0 mm 2 mps 624 mmHg 64%
    22:00 +9°C° 0 mm 2 mps 624 mmHg 65%
    23:00 +9°C° 0 mm 2 mps 624 mmHg 66%

    26 May, Saturday

    Time Temperature Precipitation Wind Pressure Humidity
    00:00 +8°C° 0 mm 2 mps 624 mmHg 67%
    01:00 +8°C° 0 mm 2 mps 623 mmHg 70%
    02:00 +8°C° 0 mm 2 mps 623 mmHg 72%
    03:00 +8°C° 0 mm 2 mps 623 mmHg 75%
    04:00 +9°C° 0 mm 2 mps 624 mmHg 74%
    05:00 +10°C° 0 mm 2 mps 624 mmHg 73%
    06:00 +12°C° 0 mm 2 mps 625 mmHg 71%
    07:00 +14°C° 0 mm 2 mps 625 mmHg 64%
    08:00 +16°C° 0 mm 3 mps 626 mmHg 56%
    09:00 +18°C° 0 mm 4 mps 627 mmHg 48%
    10:00 +19°C° 0 mm 4 mps 627 mmHg 46%
    11:00 +20°C° 0 mm 4 mps 628 mmHg 43%
    12:00 +21°C° 0 mm 4 mps 628 mmHg 41%
    13:00 +20°C° 0.1 mm 4 mps 628 mmHg 44%
    14:00 +20°C° 0.1 mm 4 mps 627 mmHg 47%
    15:00 +19°C° 0.1 mm 3 mps 627 mmHg 50%
    16:00 +18°C° 0.2 mm 3 mps 627 mmHg 54%
    17:00 +17°C° 0.2 mm 3 mps 626 mmHg 59%
    18:00 +16°C° 0.2 mm 3 mps 626 mmHg 64%
    19:00 +14°C° 0.3 mm 2 mps 626 mmHg 69%
    20:00 +13°C° 0.3 mm 2 mps 625 mmHg 74%
    21:00 +11°C° 0.3 mm 1 mps 625 mmHg 80%
    22:00 +11°C° 0 mm 1 mps 625 mmHg 78%
    23:00 +9°C° 0 mm 2 mps 624 mmHg 76%

    27 May, Sunday

    Time Temperature Precipitation Wind Pressure Humidity
    00:00 +9°C° 0 mm 2 mps 624 mmHg 74%
    01:00 +10°C° 0 mm 1 mps 624 mmHg 74%
    02:00 +9°C° 0 mm 1 mps 624 mmHg 74%
    03:00 +9°C° 0 mm 1 mps 623 mmHg 74%
    04:00 +10°C° 0 mm 1 mps 624 mmHg 72%
    05:00 +11°C° 0 mm 1 mps 624 mmHg 70%
    06:00 +12°C° 0 mm 1 mps 625 mmHg 68%
    07:00 +14°C° 0 mm 2 mps 626 mmHg 60%
    08:00 +16°C° 0 mm 2 mps 627 mmHg 52%
    09:00 +18°C° 0 mm 2 mps 628 mmHg 44%
    10:00 +19°C° 0 mm 2 mps 628 mmHg 43%
    11:00 +20°C° 0 mm 3 mps 628 mmHg 41%
    12:00 +21°C° 0 mm 3 mps 628 mmHg 39%
    13:00 +20°C° 0.7 mm 3 mps 628 mmHg 45%
    14:00 +20°C° 0.7 mm 3 mps 627 mmHg 51%
    15:00 +19°C° 0.7 mm 3 mps 627 mmHg 57%
    16:00 +18°C° 1 mm 3 mps 626 mmHg 63%
    17:00 +17°C° 1 mm 2 mps 626 mmHg 68%
    18:00 +16°C° 1 mm 1 mps 625 mmHg 74%
    19:00 +14°C° 0.7 mm 1 mps 625 mmHg 78%
    20:00 +13°C° 0.7 mm 1 mps 625 mmHg 83%
    21:00 +12°C° 0.7 mm 2 mps 625 mmHg 87%
    22:00 +10°C° 2 mm 2 mps 624 mmHg 88%
    23:00 +10°C° 2 mm 2 mps 624 mmHg 89%

    28 May, Monday

    Time Temperature Precipitation Wind Pressure Humidity
    00:00 +10°C° 2 mm 2 mps 624 mmHg 90%
    01:00 +9°C° 2 mm 2 mps 624 mmHg 91%
    02:00 +10°C° 2 mm 1 mps 623 mmHg 92%
    03:00 +10°C° 2 mm 1 mps 623 mmHg 92%
    04:00 +10°C° 0.5 mm 1 mps 623 mmHg 91%
    05:00 +10°C° 0.5 mm 1 mps 623 mmHg 89%
    06:00 +11°C° 0.5 mm 1 mps 623 mmHg 88%
    07:00 +12°C° 0.2 mm 2 mps 624 mmHg 85%
    08:00 +13°C° 0.2 mm 2 mps 625 mmHg 82%
    09:00 +13°C° 0.2 mm 2 mps 625 mmHg 79%
    10:00 +14°C° 0.6 mm 2 mps 625 mmHg 76%
    11:00 +15°C° 0.6 mm 2 mps 626 mmHg 74%
    12:00 +16°C° 0.6 mm 2 mps 626 mmHg 71%
    13:00 +16°C° 1.2 mm 2 mps 626 mmHg 72%
    14:00 +16°C° 1.2 mm 2 mps 625 mmHg 74%
    15:00 +15°C° 1.2 mm 2 mps 625 mmHg 75%
    16:00 +15°C° 0.4 mm 2 mps 625 mmHg 78%
    17:00 +14°C° 0.4 mm 2 mps 625 mmHg 81%
    18:00 +14°C° 0.4 mm 1 mps 625 mmHg 84%
    19:00 +13°C° 0.1 mm 1 mps 625 mmHg 88%
    20:00 +12°C° 0.1 mm 1 mps 625 mmHg 92%
    21:00 +11°C° 0.1 mm 1 mps 625 mmHg 97%
    22:00 +10°C° 0 mm 1 mps 625 mmHg 97%
    23:00 +10°C° 0 mm 1 mps 625 mmHg 97%
    Show more